Location: Grand Mazuras
(45.9128°N, 1.7636°E)
Time: 05:32:23
(UTC+00:00)

USA 229 DEB - Pass Details

Date: 18 April 2021
Orbit: 960 x 1252 km, 63.4° (Epoch: 23 April)

Event Time Altitude Azimuth Distance (km) Brightness Sun altitude
Rises 23:24:13 0° 320° (NW) 3,970 7.5 -32.6°
Reaches altitude 10° 23:26:51 10° 318° (NW) 3,047 6.7 -32.6°
Enters shadow 23:33:33 69° 269° (W) 1,275 3.9 -32.8°
